Hourly Data Report for September 30, 2017

TORONTO CITY
ONTARIO

43°40'00.000" N
79°24'00.000" W
112.50 m
6158355
71508
XTO

Download Data

Hourly Data (September 2017)
Hourly Data Report for September 30, 2017
TIME
LST
Temp Definition
°C
Dew Point Definition
°C
Rel Hum Definition
%
Precip. Amount Definition
mm

Wind Dir Definition
10's deg

Wind Spd Definition
km/h
Visibility Definition
km
Stn Press Definition
kPa
Hmdx Definition


Wind Chill Definition


Weather Definition


00:00 9.7 5.4 74 0.0 LegendMM LegendMM   100.86     LegendNANA
01:00 10.1 5.7 74 0.0 LegendMM LegendMM   100.95     LegendNANA
02:00 9.9 6.0 77 0.0 LegendMM LegendMM   100.99     LegendNANA
03:00 9.6 5.7 76 0.0 LegendMM LegendMM   101.07     LegendNANA
04:00 8.6 4.6 76 0.0 LegendMM LegendMM   101.14     LegendNANA
05:00 7.8 4.1 77 0.0 LegendMM LegendMM   101.22     LegendNANA
06:00 7.4 3.9 79 0.0 LegendMM LegendMM   101.31     LegendNANA
07:00 7.2 3.7 78 0.0 LegendMM LegendMM   101.39     LegendNANA
08:00 8.9 4.3 73 0.0 LegendMM LegendMM   101.45     LegendNANA
09:00 10.3 3.6 63 0.0 LegendMM LegendMM   101.52     LegendNANA
10:00 11.3 1.3 50 0.0 LegendMM LegendMM   101.59     LegendNANA
11:00 12.0 1.6 49 0.0 LegendMM LegendMM   101.63     LegendNANA
12:00 13.3 0.7 42 0.0 LegendMM LegendMM   101.63     LegendNANA
13:00 14.0 -0.9 36 0.0 LegendMM LegendMM   101.59     LegendNANA
14:00 14.4 -0.1 37 0.0 LegendMM LegendMM   101.55     LegendNANA
15:00 14.2 0.4 39 0.0 LegendMM LegendMM   101.50     LegendNANA
16:00 14.2 0.3 38 0.0 LegendMM LegendMM   101.48     LegendNANA
17:00 13.0 2.8 50 0.0 LegendMM LegendMM   101.48     LegendNANA
18:00 12.4 3.1 53 0.0 LegendMM LegendMM   101.51     LegendNANA
19:00 11.9 3.4 56 0.0 LegendMM LegendMM   101.55     LegendNANA
20:00 10.6 4.3 65 0.0 LegendMM LegendMM   101.59     LegendNANA
21:00 10.4 4.9 69 0.0 LegendMM LegendMM   101.61     LegendNANA
22:00 10.8 4.0 63 0.0 LegendMM LegendMM   101.61     LegendNANA
23:00 9.2 3.8 69 0.0 LegendMM LegendMM   101.59     LegendNANA

Notes on Data Quality.

Legend

  • E = Estimated
  • M = Missing
  • NA = Not Available*
  • [empty] = Indicates an unobserved value
Date modified: